sat.trackr.live / text

‹ back to catalog

STARLINK-5361

NORAD 57142 · 2023-090AT

PAYLOAD ACTIVE UNKNOWN

§ Identity

Operator
Country
US
Launch date
2023-06-23
Launch site
AFETR
Launch vehicle
Mass (kg)
RCS (m²)

Purposes: comms

External: N2YO · Heavens-Above · Gunter

§ Orbital elements

Epoch: 2026-09-20T23:34:18.132384Z

Period
94.27 min
Inclination
43.0033°
Eccentricity
0.0000695
Mean motion
15.27573601 rev/d
Perigee alt
482.6 km
Apogee alt
483.5 km
Semi-major
6,861.2 km
B*
1.0549e-6
RAAN
240.1913°
Arg perigee
298.5497°
Mean anomaly
61.5285°
Rev number
18,022

§ Raw data

STARLINK-53611 57142U 23090AT  26263.98215431 -.00000233  00000+0  10549-5 0  99972 57142  43.0033 240.1913 0000695 298.5497  61.5285 15.27573601180225

JSON: /api/v1/satellites/57142 · /tle

For live sub-satellite position, see the globe view (requires WebGL).

§ Visibility from observer

Set your observer location to see the next 7 days of passes ≥ 10°. The values pass through the URL so the page stays shareable.

No JS? Fill the form by hand. The geolocation button needs JavaScript.